Location: Lafig�re
(44.4503°N, 4.0357°E)
Time: 10:33:39
(UTC+00:00)

Cosmos 2150 Rocket - Pass Details

Date: 21 January 2021
Orbit: 748 x 808 km, 74.0° (Epoch: 07 March)

Event Time Altitude Azimuth Distance (km) Brightness Sun altitude
Exits shadow 06:11:02 - 339° (NNW) 3,295 6.9 -11.0°
Rises 06:11:07 0° 339° (NNW) 3,264 6.9 -11.0°
Reaches altitude 10° 06:13:29 10° 339° (NNW) 2,342 6.2 -10.6°
Maximum altitude 06:18:50 90° 340° (NNW) 796 4.1 -9.7°
Drops below altitude 10° 06:24:14 10° 161° (SSE) 2,363 7.1 -8.8°
Sets 06:26:38 0° 161° (SSE) 3,296 7.9 -8.4°
